Weather History for KPNE - September, 2011

Change the Weather History Date:

Thursday, September 29, 2011

  Actual Average Record
Temperature  
Mean Temperature 70 °F -  
Max Temperature 78 °F 69 °F 80 °F (2014)
Min Temperature 60 °F 50 °F 42 °F (2000)
Cooling Degree Days 4    
Growing Degree Days 20 (Base 50)    
Moisture  
Dew Point 67 °F    
Average Humidity 88    
Maximum Humidity 100    
Minimum Humidity 53    
Precipitation  
Precipitation 0.23 in - - ()
Sea Level Pressure  
Sea Level Pressure 29.74 in    
Wind  
Wind Speed 5 mph (South)    
Max Wind Speed 15 mph    
Max Gust Speed 21 mph    
Visibility 8 miles    
Events Rain    
Averages and records for this station are not official NWS values.
T = Trace of Precipitation, MM = Missing Value Source: NWS Daily Summary

Daily Weather History Graph

Daily Weather History Graph

Search for Another Location

Airport or City:

Trip Planner

Search our weather history database for the weather conditions in past years. The results will help you decide how hot, cold, wet, or windy it might be!

Date:

Astronomy

Sep. 29, 2011 Rise Set
Actual Time 6:54 AM EDT 6:46 PM EDT
Civil Twilight 6:27 AM EDT 7:13 PM EDT
Nautical Twilight 5:55 AM EDT 7:44 PM EDT
Astronomical Twilight 5:23 AM EDT 8:16 PM EDT
Moon 9:36 AM EDT (9/29) 7:56 PM EDT (9/29)
Length of Visible Light 12h 45m
Length of Day
11h 51m
Waxing Crescent, 7% of the Moon is Illuminated
Sep 29
Waxing Crescent
Oct 3
First Quarter
Oct 11
Full
Oct 19
Last Quarter
Oct 26
New

Hourly Weather History & Observations

Time (EDT) Temp. Dew Point Humidity Pressure Visibility Wind Dir Wind Speed Gust Speed Precip Events Conditions
1:01 AM 71.6 °F 69.8 °F 94% 29.81 in 1.8 mi SSE 9.2 mph - 0.10 in Rain Heavy Rain
1:08 AM 71.6 °F 69.8 °F 94% 29.80 in 2.0 mi SSE 4.6 mph - 0.25 in Rain Rain
2:09 AM 71.6 °F 69.8 °F 94% 29.80 in 10.0 mi SSE 3.5 mph - N/A   Overcast
2:52 AM 71.6 °F 69.8 °F 94% 29.79 in 10.0 mi Calm Calm - N/A   Overcast
3:05 AM 71.6 °F 69.8 °F 94% 29.78 in 10.0 mi SSE 4.6 mph - N/A   Overcast
3:54 AM 71.1 °F 70.0 °F 96% 29.77 in 10.0 mi South 3.5 mph - N/A   Overcast
5:11 AM 71.6 °F 69.8 °F 94% 29.76 in 9.0 mi Calm Calm - N/A   Mostly Cloudy
5:31 AM 69.8 °F 69.8 °F 100% 29.76 in 7.0 mi Variable 3.5 mph - N/A   Scattered Clouds
5:51 AM 69.8 °F 69.8 °F 100% 29.75 in 6.0 mi SSE 3.5 mph - N/A   Mostly Cloudy
7:19 AM 69.8 °F 68.0 °F 94% 29.77 in 7.0 mi South 3.5 mph - N/A   Overcast
7:54 AM 70.0 °F 68.0 °F 93% 29.77 in 7.0 mi SSW 4.6 mph - N/A   Overcast
8:08 AM 69.8 °F 68.0 °F 94% 29.77 in 7.0 mi Variable 3.5 mph - N/A   Overcast
8:28 AM 69.8 °F 68.0 °F 94% 29.77 in 7.0 mi SSW 4.6 mph - N/A   Overcast
8:42 AM 69.8 °F 68.0 °F 94% 29.76 in 6.0 mi SSE 3.5 mph - N/A   Overcast
8:54 AM 71.1 °F 69.1 °F 93% 29.75 in 6.0 mi South 3.5 mph - N/A   Overcast
9:54 AM 72.0 °F 68.0 °F 87% 29.75 in 8.0 mi Variable 4.6 mph - N/A   Overcast
10:27 AM 71.6 °F 69.8 °F 94% 29.75 in 10.0 mi Calm Calm - 0.33 in   Mostly Cloudy
10:54 AM 73.4 °F 69.8 °F 88% 29.72 in 9.0 mi Variable 4.6 mph - N/A   Mostly Cloudy
11:45 AM 73.4 °F 68.0 °F 83% 29.72 in 10.0 mi Variable 4.6 mph - N/A   Mostly Cloudy
11:54 AM 73.9 °F 66.9 °F 79% 29.71 in 10.0 mi Variable 5.8 mph - N/A   Scattered Clouds
1:54 PM 77.0 °F 64.0 °F 64% 29.65 in 10.0 mi SSW 15.0 mph 20.7 mph N/A   Scattered Clouds
2:54 PM 70.0 °F 63.0 °F 78% 29.65 in 10.0 mi WSW 6.9 mph - 0.23 in   Mostly Cloudy
3:54 PM 73.9 °F 63.0 °F 68% 29.65 in 10.0 mi WNW 10.4 mph - N/A   Mostly Cloudy
4:54 PM 73.9 °F 55.9 °F 53% 29.65 in 10.0 mi West 13.8 mph - N/A   Scattered Clouds
9:54 PM 62.1 °F 55.9 °F 80% 29.74 in 10.0 mi Calm Calm - N/A   Clear
10:54 PM 60.1 °F 55.9 °F 86% 29.75 in 10.0 mi Calm Calm - N/A   Clear